Regional Weather Roundup
Issued by NWS

Home | Current Version | Previous Version | Text Only | Print | Product List | Glossary Off
Versions: 1 2 3 4 5 6 7 8 9 10 11 12 13 14 15 16 17 18 19 20 21 22 23 24 25 26 27 28 29 30 31 32 33 34 35 36 37 38 39 40 41 42 43 44 45 46 47 48 49 50

064
ASUS44 KJAN 301510
RWRMS

MISSISSIPPI HOURLY WEATHER ROUNDUP
NATIONAL WEATHER SERVICE JACKSON MS
1000 AM CDT THU OCT 30 2014

NOTE: "FAIR: INDICATES FEW OR NO CLOUDS BELOW 12,000 FEET WITH NO
SIGNIFICANT WEATHER AND/OR OBSTRUCTIONS TO VISIBILITY.

MSZ001>002-007>008-010>013-018>021-025>028-034>036-301600-
NORTHWEST MISSISSIPPI

CITY           SKY/WX    TMP DP  RH WIND       PRES   REMARKS
CLARKSDALE     FAIR      57  48  72 CALM      30.18S
CLEVELAND      FAIR      59  50  71 CALM      30.17F
GREENWOOD      SUNNY     59  48  67 CALM      30.17F
GREENVILLE     SUNNY     61  49  64 CALM      30.17F
GRENADA        FAIR      55  48  76 MISG        N/A
OLIVE BRANCH   SUNNY     52  45  76 CALM      30.17F
OXFORD         FAIR      55  45  67 CALM      30.19S
TUNICA         SUNNY     54  46  76 CALM      30.18S HAZE
$$

MSZ003>006-009-014>017-022>024-029>033-037>039-301600-
NORTHEAST MISSISSIPPI

CITY           SKY/WX    TMP DP  RH WIND       PRES   REMARKS
COLUMBUS AFB   SUNNY     55  45  68 CALM      30.17S
CORINTH        FAIR      52  43  71 CALM      30.18S
GOLDN TRIANGLE SUNNY     55  46  71 N5        30.16S
STARKVILLE     FAIR      54  46  76 CALM      30.17S
TUPELO         SUNNY     54  45  71 NE5       30.18R
$$

MSZ040-058-301600-
CENTRAL MISSISSIPPI

CITY           SKY/WX    TMP DP  RH WIND       PRES   REMARKS
JACKSON INTL   SUNNY     63  44  50 E5        30.17S
JACKSON HAWKNS SUNNY     63  43  48 E5        30.17S
MERIDIAN KEY   SUNNY     59  45  59 N3        30.16S
MERIDIAN NAS   SUNNY     58  46  64 CALM      30.17R
RAYMOND        FAIR      57  54  88 CALM      30.18R
VICKSBURG      SUNNY     60  48  64 NE3       30.18R
$$

MSZ059>079-301600-
SOUTH MISSISSIPPI

CITY           SKY/WX    TMP DP  RH WIND       PRES   REMARKS
BROOKHAVEN     FAIR      59  45  58 N5        30.17S
COLUMBIA         N/A     63  45  51 MISG      30.14S
HATTIESBURG    SUNNY     63  44  50 VRB7      30.16S
MCCOMB         SUNNY     62  42  47 NE7       30.15R
NATCHEZ        SUNNY     61  45  55 E7        30.18R
PINE BELT      SUNNY     61  43  51 NE8       30.17S
$$

MSZ080>082-301600-
COASTAL MISSISSIPPI

CITY           SKY/WX    TMP DP  RH WIND       PRES   REMARKS
BAY ST LOUIS   SUNNY     64  39  39 NE9       30.13R
BILOXI         SUNNY     65  47  51 NE10      30.11S
PASCAGOULA     SUNNY     65  47  52 NE8       30.11S
GULFPORT       SUNNY     66  44  45 N10       30.11S
$$



USA.gov is the U.S. government's official web portal to all federal, state and local government web resources and services.